Location: Goheenville
(40.9070°N, 79.3720°W)
Time: 01:24:52
(UTC-04:00)

Daily predictions for brighter satellites

Satellite Brightness Start Highest point End
(mag) Time Altitude Azimuth Time Altitude Azimuth Time Altitude Azimuth
H-2A R/B 4.1 00:04:41 19° W 00:04:41 19° W 00:07:30 10° NW
NOSS 3-1 (A) 4.5 00:10:33 37° NE 00:10:33 37° NE 00:14:23 10° NE
SL-16 R/B 4.0 00:33:20 23° NE 00:33:20 23° NE 00:35:31 10° NE
Cosmos 2333 Rocket 3.5 00:46:50 37° NNW 00:46:50 37° NNW 00:51:11 10° N
CZ-4C R/B 3.1 00:38:56 10° NW 00:44:55 66° NW 00:44:55 66° NW
ATLAS 3B R/B 4.1 00:43:52 10° NNW 00:49:47 29° NE 00:51:14 27° ENE
Cosmos 2237 Rocket 3.5 00:56:36 37° NNW 00:56:36 37° NNW 01:00:29 10° NNE
Cosmos 2278 Rocket 3.9 00:53:29 10° NW 00:56:09 26° NW 00:56:09 26° NW
CZ-2C R/B 4.0 01:14:10 10° N 01:17:28 36° NNW 01:17:28 36° NNW
USA 215 4.3 01:17:43 10° NE 01:21:27 36° ENE 01:21:27 36° ENE
Cosmos 2219 Rocket 4.4 01:27:00 16° WNW 01:27:45 17° NW 01:31:16 10° N
USA 267 4.4 01:50:31 10° E 01:56:27 38° NNE 02:02:22 10° NW
ATLAS CENTAUR R/B 4.3 02:00:34 15° N 02:00:34 15° N 02:01:27 10° NNE
Cosmos 2369 Rocket 3.4 01:52:47 10° N 01:56:56 38° NNE 01:56:56 38° NNE
ATLAS 2AS CENTAUR R/B 3.0 02:00:29 75° NNW 02:00:29 75° NNW 02:08:17 10° NNE
SL-16 R/B 3.9 02:15:11 25° NW 02:15:11 25° NW 02:19:10 10° N
Cosmos 1943 Rocket 3.3 02:19:37 10° N 02:24:53 37° ENE 02:25:05 37° ENE
ATLAS 3B R/B 3.5 02:34:17 10° NW 02:38:26 38° NW 02:38:26 38° NW
SL-16 R/B 3.7 02:49:25 25° ESE 02:52:13 37° ENE 02:57:48 10° N
USA 238 DEB 3.9 02:46:14 10° NW 02:52:03 61° WNW 02:52:03 61° WNW
USA 238 3.9 02:46:20 10° NW 02:52:12 62° WNW 02:52:12 62° WNW
Cosmos 2218 Rocket 4.1 02:56:32 10° N 03:02:00 68° NW 03:02:00 68° NW
USA 215 4.0 03:00:55 10° NE 03:07:01 44° NNW 03:08:48 36° WNW
Cosmos 2366 rocket 4.0 03:03:08 10° N 03:09:00 74° NW 03:09:00 74° NW
Cosmos 1943 3.9 03:12:41 45° NW 03:12:41 45° NW 03:17:30 10° NNE
GEOS 3 Rocket 4.0 03:08:46 10° NE 03:13:30 60° E 03:13:30 60° E
Lacrosse 5 rocket 4.3 03:14:44 11° ESE 03:14:44 11° ESE 03:15:28 10° E
COSMOS 2455 3.8 03:13:13 10° NNW 03:19:00 46° NE 03:24:45 10° SE
IRS-P3 4.3 03:13:53 10° N 03:18:31 64° NNW 03:18:31 64° NNW
ARIANE 5 R/B 3.4 03:14:19 10° NNE 03:19:17 41° E 03:19:42 40° ESE
SL-08 R/B 4.3 03:22:01 40° NNW 03:22:01 40° NNW 03:25:06 10° NNW
Meteor 2-14 Rocket 4.3 03:15:32 10° N 03:21:42 89° ENE 03:21:59 83° SSE
Meteor 2-21 Rocket 4.3 03:17:12 10° N 03:23:23 83° W 03:23:27 83° WSW
Meteor 2-16 Rocket 4.3 03:17:17 10° N 03:23:24 81° E 03:24:01 72° SE
NOSS 3-2 (C) 4.1 03:17:06 10° NNW 03:24:39 76° NE 03:32:48 10° SE
Cosmos 923 Rocket 4.1 03:25:59 77° NNE 03:25:59 77° NNE 03:30:59 10° NNE
RESURS DK-1 3.9 03:28:13 32° E 03:28:13 32° E 03:31:08 10° NE
Cosmos 44 4.3 03:28:39 10° NNW 03:31:14 34° NNW 03:31:14 34° NNW
Cosmos 1602 Rocket 4.3 03:35:29 49° N 03:35:29 49° N 03:38:50 10° N
USA 267 3.1 03:32:34 10° SE 03:39:06 77° SW 03:45:41 10° NW
NPP 4.0 03:36:02 10° N 03:41:02 50° WNW 03:41:02 50° WNW
Cosmos 2369 Rocket 4.1 03:37:16 10° NW 03:38:41 16° WNW 03:38:41 16° WNW
CENTAUR R/B 4.2 03:35:11 10° NNW 03:42:33 43° NE 03:50:24 10° ESE
CBERS 1 LM4 rocket 4.5 03:40:53 10° NNE 03:46:09 89° E 03:46:40 74° S
Cosmos 1842 4.0 03:47:25 51° NE 03:47:25 51° NE 03:50:34 10° NNE
COBE Rocket 4.3 03:41:42 10° NNE 03:46:43 58° E 03:47:37 50° SE
Cosmos 1766 4.3 03:43:38 10° N 03:46:21 42° N 03:46:21 42° N
Cosmos 724 4.2 03:41:59 10° NNW 03:48:07 89° ENE 03:52:26 20° SSE
Tiangong 1 3.9 03:50:41 15° ENE 03:50:41 15° ENE 03:51:14 10° ENE
ADEOS Rocket 3.0 03:43:59 10° NNE 03:49:59 80° ESE 03:52:01 47° S
NOSS 3-4 (A) 3.5 03:49:10 57° WSW 03:50:20 71° NW 03:56:51 10° NNE
NOSS 3-4 (C) 3.5 03:49:15 58° WSW 03:50:26 71° NW 03:56:57 10° NNE
Nadezhda 3 Rocket 3.9 03:53:26 57° SW 03:54:39 72° W 04:00:59 10° N
Meteor 1-22 Rocket 4.1 03:50:49 10° NNW 03:56:18 61° W 03:56:23 61° W
Resurs 1-4 Rocket 2.0 03:51:57 10° NNE 03:57:15 85° WNW 03:58:03 65° SSW
COSMOS 2406 3.2 03:57:45 55° S 03:59:03 82° ESE 04:04:51 10° NNE
CZ-2D R/B 2.0 03:55:18 10° N 04:00:39 81° WNW 04:01:33 62° SSW
Cosmos 1544 3.6 03:57:13 10° N 04:00:19 57° NNE 04:00:19 57° NNE
Cosmos 2112 Rocket 3.9 04:00:33 63° WSW 04:01:06 68° WNW 04:06:23 10° NNE
NOSS 3-2 (A) 4.1 03:59:31 10° NW 04:06:52 53° WSW 04:14:44 10° S
Cosmos 1943 Rocket 3.5 04:03:35 10° NW 04:06:33 25° WNW 04:06:33 25° WNW
NOSS 2-2 (C) 4.3 04:09:36 35° SE 04:10:20 39° ESE 04:14:29 10° NE
Cosmos 1953 2.7 04:06:56 10° N 04:10:54 62° E 04:12:01 42° SE
Cosmos 1758 Rocket 3.6 04:15:53 46° SSE 04:17:06 72° E 04:21:27 10° NNE
Cosmos 1624 Rocket 4.1 04:12:36 10° NNW 04:17:49 76° ENE 04:23:02 10° SSE
Spot 4 Rocket 4.4 04:13:19 10° N 04:18:13 45° WNW 04:19:02 42° W
Cosmos 1470 4.1 04:16:15 10° N 04:19:55 38° ENE 04:23:34 10° SSE
USA 32 3.9 04:18:56 40° S 04:20:54 84° W 04:26:11 10° N
Meteor 1-4 Rocket 4.4 04:21:33 10° NNW 04:23:11 21° NW 04:23:11 21° NW
Cosmos 1758 3.2 04:21:42 10° NNW 04:25:48 75° W 04:26:36 55° SSW
Cosmos-2242 4.1 04:21:40 10° N 04:25:55 46° ENE 04:30:09 10° SSE
ADEOS 4.0 04:22:22 10° N 04:27:20 45° WNW 04:28:35 38° WSW
USA 161 1.7 04:27:46 70° NE 04:27:46 70° NE 04:30:33 10° N
UNKNOWN OBJECT B 2.8 04:26:51 10° N 04:30:48 68° WNW 04:31:32 54° SW
Cosmos 2056 Rocket 3.4 04:25:29 10° NNW 04:30:52 89° WSW 04:36:06 10° SSE
SL-16 R/B 3.1 04:34:30 32° WSW 04:35:48 35° W 04:41:25 10° NNW
Cosmos 921 Rocket 3.0 04:32:06 10° NNW 04:36:37 88° E 04:41:07 10° SSE
Cosmos 374 Rocket 4.2 04:34:05 10° NW 04:37:51 83° ENE 04:41:56 10° SE
Cosmos 1953 Rocket 3.6 04:36:52 41° SW 04:38:12 63° W 04:42:38 10° N
IRS-1D 4.5 04:38:33 10° N 04:43:05 32° WNW 04:44:36 27° W
Cosmos 1821 Rocket 4.3 04:37:56 10° NNW 04:43:38 43° W 04:46:40 26° SW
MOS 1 Rocket 3.0 04:42:17 10° N 04:46:37 83° WNW 04:49:12 25° SSW
CZ-4B R/B 4.1 04:44:08 10° NNE 04:48:13 43° E 04:52:27 10° S
MOS 1-B 4.3 04:43:31 10° NNE 04:49:22 88° ESE 04:54:14 15° SSW
Cosmos 1378 4.1 04:48:40 10° SSE 04:52:13 46° E 04:55:50 10° NNE
Lacrosse 5 rocket 1.6 04:50:27 30° SW 04:52:45 80° SE 04:57:26 10° NE
SL-27 R/B 3.5 04:52:50 29° W 04:53:15 30° WNW 04:56:29 10° N
Cosmos 1656 Rocket 4.4 04:50:22 10° NW 04:54:53 28° WSW 04:56:00 25° WSW
ARIANE 5 R/B 3.8 04:53:55 10° NNW 04:58:08 25° WNW 05:00:03 20° W
Genesis I 4.2 04:57:07 10° NW 04:59:58 27° W 04:59:58 27° W
Cosmos 1605 Rocket 4.0 04:58:06 10° NNW 05:04:11 57° W 05:10:09 10° SSW
CZ-2D R/B 4.2 05:00:53 10° N 05:04:34 33° WNW 05:06:09 24° WSW
COSMOS 2455 3.6 04:59:35 10° NW 05:04:41 29° WSW 05:09:46 10° SSW
RESURS DK-1 4.0 05:04:08 17° W 05:05:30 20° NW 05:08:35 10° N
Cosmos 1452 Rocket 3.7 05:00:49 10° NNW 05:06:05 78° ENE 05:11:21 10° SSE
Okean O Rocket 1.9 05:02:04 10° NNE 05:06:31 70° ESE 05:10:54 10° S
NOSS 2-2 (E) 3.9 05:04:42 25° WSW 05:06:52 51° NW 05:11:31 10° NNE
ADEOS II 2.4 05:01:49 10° NNE 05:07:05 68° ESE 05:12:17 10° S
Cosmos 1733 3.4 05:05:01 10° NNW 05:08:41 49° W 05:11:58 12° SSW
Meteor 2-5 Rocket 3.8 05:03:14 10° S 05:08:53 87° E 05:14:42 10° N
Cosmos 1339 Rocket 4.4 05:05:00 10° SSW 05:10:55 67° W 05:17:00 10° N
Cosmos 1818 3.6 05:08:43 19° SW 05:12:38 69° NW 05:18:06 10° NNE
Cosmos 2278 3.9 05:08:24 10° NNW 05:14:09 76° ENE 05:19:51 10° SSE
Cosmos 1271 Rocket 4.1 05:11:53 10° NW 05:14:33 19° W 05:14:44 19° W
Cosmos 1697 Rocket 4.3 05:09:34 10° N 05:14:48 38° ENE 05:19:58 10° SE
COSMOS 2487 2.5 05:11:55 15° SSW 05:14:50 84° ESE 05:18:25 10° NNE
Orbus 7S? 3.8 05:15:16 10° NW 05:18:23 44° NE 05:20:51 10° ESE
EO 1 Del DPAF 3.8 05:15:24 10° SSE 05:19:12 63° ENE 05:23:02 10° N
Cosmos 2369 3.8 05:15:04 10° NNW 05:20:51 84° ENE 05:26:35 10° SSE
USA 267 4.4 05:18:30 10° SSW 05:22:46 18° WSW 05:27:02 10° W
Tiangong 1 0.9 05:22:00 14° WNW 05:24:20 72° N 05:27:11 10° E
Cosmos 1420 Rocket 4.3 05:19:29 10° NNW 05:24:50 74° ENE 05:30:07 10° SSE
Cosmos 1048 Rocket 4.3 05:25:24 10° S 05:30:29 66° ESE 05:35:35 10° NNE
Cosmos 2100 Rocket 3.9 05:27:14 10° N 05:33:28 80° W 05:39:37 10° S
CENTAUR R/B 3.2 05:25:50 10° NW 05:33:34 54° WSW 05:41:41 10° S
SOZ 4.1 05:32:39 15° SW 05:34:22 73° SE 05:36:40 10° NE
Cosmos 1000 Rocket 4.5 05:29:17 10° S 05:35:26 88° W 05:41:41 10° N
Resurs 1-4 Rocket 4.1 05:34:36 10° NW 05:36:14 11° WNW 05:37:53 10° WNW
Cosmos 1269 Rocket 4.2 05:33:04 10° SSW 05:38:20 78° ESE 05:43:38 10° NNE
Cosmos 839 Rocket 4.4 05:32:28 10° NW 05:38:39 52° WSW 05:45:58 10° S
CZ-2D R/B 4.1 05:38:26 10° NW 05:39:48 11° WNW 05:41:10 10° WNW
PAYLOAD B 4.3 05:35:06 10° N 05:40:39 66° WNW 05:46:07 10° SSW
Cosmos 2098 Rocket 3.9 05:39:20 10° NW 05:41:06 15° W 05:42:23 12° WSW
Cosmos 2082 Rocket 2.3 05:37:26 10° SSW 05:43:09 89° ESE 05:48:53 10° NNE
Cosmos 2173 Rocket 4.0 05:37:44 10° NNW 05:44:02 72° W 05:50:12 10° S
Cosmos 389 Rocket 4.0 05:44:18 10° NW 05:46:53 19° W 05:49:26 10° SW
Cosmos 1980 Rocket 3.8 05:42:11 10° N 05:47:34 42° ENE 05:52:54 10° SE
Cosmos 1833 Rocket 2.7 05:43:08 10° SSW 05:48:45 90° ESE 05:54:24 10° NNE
Meteor 2-17 Rocket 4.4 05:42:55 10° N 05:48:59 79° W 05:55:01 10° S
CZ-4B R/B 3.3 05:44:01 10° N 05:49:20 60° WNW 05:54:32 10° SSW
Meteor 1-31 Rocket 3.3 05:46:05 10° NNE 05:49:58 64° ESE 05:53:50 10° S
Cosmos 2061 Rocket 4.0 05:45:42 10° NNW 05:51:54 67° W 05:58:01 10° S
Cosmos 1842 Rocket 4.0 05:48:44 10° NNW 05:52:53 42° W 05:57:03 10° SSW
Cosmos 1707 4.3 05:50:43 10° WSW 05:53:33 19° WNW 05:56:22 10° NNW
Delta 2 Rocket 3.8 05:51:42 10° WSW 05:54:43 32° S 05:57:51 10° ESE
CZ-2C R/B 3.8 05:50:37 10° S 05:54:55 53° W 05:59:18 10° NNW
Cosmos 1656 3.6 05:55:23 10° NNW 06:00:46 66° WSW 06:06:08 10° S
CZ-3 R/B 4.0 05:55:53 10° SW 06:04:05 17° S 06:08:22 10° SE
